Regional Weather Roundup
Issued by NWS

Home | Current Version | Previous Version | Text Only | Print | Product List | Glossary Off
Versions: 1 2 3 4 5 6 7 8 9 10 11 12 13 14 15 16 17 18 19 20 21 22 23 24 25 26 27 28 29 30 31 32 33 34 35 36 37 38 39 40 41 42 43 44 45 46 47 48 49 50

026
ASUS43 KDMX 300308
RWRIA

WEATHER ROUNDUP FOR IOWA
NATIONAL WEATHER SERVICE DES MOINES IA
1000 PM CDT FRI APR 29 2016

NOTE: "FAIR" INDICATES FEW OR NO CLOUDS BELOW 12,000 FEET WITH NO
SIGNIFICANT WEATHER AND/OR OBSTRUCTIONS TO VISIBILITY.

* - THESE STATIONS ARE NOT NWS STATIONS...THUS NOT UNDER NWS
QUALITY CONTROL.  THEY ALSO DO NOT REPORT WEATHER SUCH
AS PRECIPITATION OR FOG.

IAZ001>003-012>014-020>022-031>034-043>046-300400-
   NORTHWEST IOWA

CITY           SKY/WX    TMP DP  RH WIND       PRES   REMARKS
CARROLL *      CLOUDY    46  43  87 E13       30.02R
CHEROKEE *     CLOUDY    45  41  87 E10       30.04S
DENISON *      CLOUDY    46  41  81 E15G21    29.98S
LE MARS *      CLOUDY    46  41  81 E8        30.05R
ORANGE CITY *  MOCLDY    45  39  81 E9        30.04S
SHELDON *      CLOUDY    45  41  87 E13       30.04R
SIOUX CITY     CLOUDY    47  39  74 E10       30.02S
SPENCER        MOCLDY    44  38  79 E9        30.06S
STORM LAKE *   CLOUDY    45  41  87 E16       30.04R
$$

IAZ055>058-069>071-079>083-090>094-300400-
   SOUTHWEST IOWA

CITY           SKY/WX    TMP DP  RH WIND       PRES   REMARKS
ATLANTIC *     CLOUDY    46  43  87 NE13G20   29.97S
AUDUBON *      CLOUDY    46  41  81 E16       30.00S
CLARINDA *       N/A    N/A N/A N/A MISG        N/A
COUNCIL BLFS * CLOUDY    46  43  87 NE15      29.94S
CRESTON *      CLOUDY    46  43  87 E21       29.97S
HARLAN  *      CLOUDY    46  43  87 NE14      30.00F
LAMONI         CLOUDY    47  44  90 NE12G22   29.94F
RED OAK *      CLOUDY    48  45  87 NE20      29.93F
SHENANDOAH *   CLOUDY    48  46  93 NE16G26   29.92S
$$

IAZ047>049-059>061-072>074-084-300400-
   CENTRAL IOWA

CITY           SKY/WX    TMP DP  RH WIND       PRES   REMARKS
AMES           CLOUDY    47  41  80 E13       30.03S
ANKENY *       CLOUDY    48  43  81 NE10G17   30.02R
BOONE *        CLOUDY    46  41  81 E15       30.03R
CHARITON *     CLOUDY    48  43  81 E12G18    29.99R
DES MOINES     CLOUDY    50  41  71 E9        30.01R
GRINNELL*      CLOUDY    46  43  87 E13       30.04R
KNOXVILLE *    CLOUDY    48  43  81 E15       29.99R
MARSHALLTOWN   CLOUDY    47  40  76 E13       30.03F
NEWTON *       CLOUDY    48  45  87 E15       30.01S
PELLA *        CLOUDY    48  43  81 E7        30.02R
$$

IAZ004>006-015-016-023>025-035-036-300400-
   NORTH CENTRAL IOWA

CITY           SKY/WX    TMP DP  RH WIND       PRES   REMARKS
ALGONA *       CLOUDY    46  43  87 E7        30.07S
CLARION *      CLOUDY    45  41  87 E9        30.05S
ESTHERVILLE    CLOUDY    43  40  89 E9        30.06S
FORT DODGE *   CLOUDY    45  37  76 E10       30.06R
MASON CITY     CLOUDY    46  41  82 E6        30.08F
FOREST CITY *  CLOUDY    45  39  81 NE5       30.06F
WEBSTER CITY * CLOUDY    46  41  81 E12       30.04R
IOWA FALLS *   CLOUDY    46  41  81 E9        30.07R
$$

IAZ007>011-017>019-026>030-037>042-050>054-066-300400-
   NORTHEAST IOWA

CITY           SKY/WX    TMP DP  RH WIND       PRES   REMARKS
CEDAR RAPIDS   CLOUDY    46  42  86 E13       30.03F
CHARLES CITY * CLOUDY    46  43  87 E9        30.08F
CLINTON *      CLOUDY    47  42  83 E13       30.09F
DECORAH *      CLOUDY    46  41  81 E5        30.09F
DUBUQUE        CLOUDY    46  40  79 E7        30.09F
MONTICELLO *   CLOUDY    46  41  81 E9G17     30.07F
OELWEIN *      CLOUDY    46  41  81 E8        30.08F
WATERLOO       CLOUDY    46  40  79 E9        30.05F
$$

IAZ064-065-067-068-078-300400-
   EAST CENTRAL IOWA

CITY           SKY/WX    TMP DP  RH WIND       PRES   REMARKS
DAVENPORT      CLOUDY    47  41  80 E13       30.08F
IOWA CITY      CLOUDY    48  41  76 E9        30.06F
MT. PLEASANT * CLOUDY    50  46  87 E14G20    30.02F
MUSCATINE *    CLOUDY    50  43  76 E10       30.06S
QUAD CITIES    CLOUDY    49  41  74 E13       30.08S
$$

IAZ062-063-075>077-085>089-095>099-300400-
   SOUTHEAST IOWA

CITY           SKY/WX    TMP DP  RH WIND       PRES   REMARKS
BURLINGTON     CLOUDY    49  44  83 E10       30.03F
FAIRFIELD *    CLOUDY    48  43  81 E18       30.00F
FORT MADISON * CLOUDY    48  45  87 E13G21    30.02F
KEOKUK *       CLOUDY    50  46  87 E16       29.99F
OSKALOOSA *    MOCLDY    48  43  81 E15       30.01R
OTTUMWA        CLOUDY    48  43  82 E16G23    30.00F
WASHINGTON *   CLOUDY    48  46  93 E15       30.04F
$$

ABBREVIATIONS USED IN REMARKS
   TC - TEMPERATURES IN CELSIUS
  WCI - WIND CHILL INDEX
   HX - HEAT INDEX
  VSB - VISIBILITY
$$





USA.gov is the U.S. government's official web portal to all federal, state and local government web resources and services.